Year,Month,Day,Hour,Minute,Value (Times are PST for temperature in C)
2011,08,20,00,00,13.00
2011,08,20,00,01,13.00
2011,08,20,00,02,13.00
2011,08,20,00,03,13.00
2011,08,20,00,04,13.00
2011,08,20,00,05,12.90
2011,08,20,00,06,12.90
2011,08,20,00,07,12.90
2011,08,20,00,08,12.90
2011,08,20,00,09,12.90
2011,08,20,00,10,12.90
2011,08,20,00,11,12.90
2011,08,20,00,12,12.90
2011,08,20,00,13,12.90
2011,08,20,00,14,12.80
2011,08,20,00,15,12.80
2011,08,20,00,16,12.80
2011,08,20,00,17,12.80
2011,08,20,00,18,12.80
2011,08,20,00,19,12.80
2011,08,20,00,20,12.80
2011,08,20,00,21,12.80
2011,08,20,00,22,12.80
2011,08,20,00,23,12.80
2011,08,20,00,24,12.80
2011,08,20,00,25,12.80
2011,08,20,00,26,12.80
2011,08,20,00,27,12.80
2011,08,20,00,28,12.80
2011,08,20,00,29,12.80
2011,08,20,00,30,12.80
2011,08,20,00,31,12.80
2011,08,20,00,32,12.80
2011,08,20,00,33,12.80
2011,08,20,00,34,12.80
2011,08,20,00,35,12.80
2011,08,20,00,36,12.80
2011,08,20,00,37,12.80
2011,08,20,00,38,12.80
2011,08,20,00,39,12.80
2011,08,20,00,40,12.80
2011,08,20,00,41,12.80
2011,08,20,00,42,12.80
2011,08,20,00,43,12.70
2011,08,20,00,44,12.70
2011,08,20,00,45,12.70
2011,08,20,00,46,12.70
2011,08,20,00,47,12.60
2011,08,20,00,48,12.60
2011,08,20,00,49,12.60
2011,08,20,00,50,12.60
2011,08,20,00,51,12.60
2011,08,20,00,52,12.50
2011,08,20,00,53,12.50
2011,08,20,00,54,12.50
2011,08,20,00,55,12.50
2011,08,20,00,56,12.50
2011,08,20,00,57,12.50
2011,08,20,00,58,12.50
2011,08,20,00,59,12.50
2011,08,20,01,00,12.50
2011,08,20,01,01,12.50
2011,08,20,01,02,12.50
2011,08,20,01,03,12.50
2011,08,20,01,04,12.50
2011,08,20,01,05,12.50
2011,08,20,01,06,12.50
2011,08,20,01,07,12.60
2011,08,20,01,08,12.60
2011,08,20,01,09,12.60
2011,08,20,01,10,12.60
2011,08,20,01,11,12.60
2011,08,20,01,12,12.60
2011,08,20,01,13,12.60
2011,08,20,01,14,12.60
2011,08,20,01,15,12.60
2011,08,20,01,16,12.70
2011,08,20,01,17,12.70
2011,08,20,01,18,12.70
2011,08,20,01,19,12.70
2011,08,20,01,20,12.70
2011,08,20,01,21,12.70
2011,08,20,01,22,12.70
2011,08,20,01,23,12.70
2011,08,20,01,24,12.70
2011,08,20,01,25,12.70
2011,08,20,01,26,12.60
2011,08,20,01,27,12.60
2011,08,20,01,28,12.60
2011,08,20,01,29,12.60
2011,08,20,01,30,12.60
2011,08,20,01,31,12.50
2011,08,20,01,32,12.50
2011,08,20,01,33,12.50
2011,08,20,01,34,12.50
2011,08,20,01,35,12.40
2011,08,20,01,36,12.40
2011,08,20,01,37,12.40
2011,08,20,01,38,12.30
2011,08,20,01,39,12.30
2011,08,20,01,40,12.30
2011,08,20,01,41,12.30
2011,08,20,01,42,12.30
2011,08,20,01,43,12.30
2011,08,20,01,44,12.30
2011,08,20,01,45,12.20
2011,08,20,01,46,12.20
2011,08,20,01,47,12.20
2011,08,20,01,48,12.20
2011,08,20,01,49,12.20
2011,08,20,01,50,12.20
2011,08,20,01,51,12.20
2011,08,20,01,52,12.20
2011,08,20,01,53,12.20
2011,08,20,01,54,12.20
2011,08,20,01,55,12.20
2011,08,20,01,56,12.20
2011,08,20,01,57,12.20
2011,08,20,01,58,12.30
2011,08,20,01,59,12.30
2011,08,20,02,00,12.30
2011,08,20,02,01,12.30
2011,08,20,02,02,12.30
2011,08,20,02,03,12.30
2011,08,20,02,04,12.30
2011,08,20,02,05,12.30
2011,08,20,02,06,12.30
2011,08,20,02,07,12.30
2011,08,20,02,08,12.30
2011,08,20,02,09,12.30
2011,08,20,02,10,12.30
2011,08,20,02,11,12.30
2011,08,20,02,12,12.30
2011,08,20,02,13,12.30
2011,08,20,02,14,12.30
2011,08,20,02,15,12.30
2011,08,20,02,16,12.30
2011,08,20,02,17,12.30
2011,08,20,02,18,12.30
2011,08,20,02,19,12.30
2011,08,20,02,20,12.30
2011,08,20,02,21,12.30
2011,08,20,02,22,12.30
2011,08,20,02,23,12.30
2011,08,20,02,24,12.30
2011,08,20,02,25,12.30
2011,08,20,02,26,12.30
2011,08,20,02,27,12.30
2011,08,20,02,28,12.30
2011,08,20,02,29,12.30
2011,08,20,02,30,12.30
2011,08,20,02,31,12.30
2011,08,20,02,32,12.30
2011,08,20,02,33,12.30
2011,08,20,02,34,12.30
2011,08,20,02,35,12.30
2011,08,20,02,36,12.30
2011,08,20,02,37,12.30
2011,08,20,02,38,12.30
2011,08,20,02,39,12.30
2011,08,20,02,40,12.30
2011,08,20,02,41,12.30
2011,08,20,02,42,12.30
2011,08,20,02,43,12.30
2011,08,20,02,44,12.30
2011,08,20,02,45,12.30
2011,08,20,02,46,12.30
2011,08,20,02,47,12.30
2011,08,20,02,48,12.30
2011,08,20,02,49,12.30
2011,08,20,02,50,12.30
2011,08,20,02,51,12.30
2011,08,20,02,52,12.30
2011,08,20,02,53,12.30
2011,08,20,02,54,12.30
2011,08,20,02,55,12.30
2011,08,20,02,56,12.30
2011,08,20,02,57,12.30
2011,08,20,02,58,12.30
2011,08,20,02,59,12.30
2011,08,20,03,00,12.30
2011,08,20,03,01,12.30
2011,08,20,03,02,12.30
2011,08,20,03,03,12.30
2011,08,20,03,04,12.30
2011,08,20,03,05,12.40
2011,08,20,03,06,12.40
2011,08,20,03,07,12.40
2011,08,20,03,08,12.40
2011,08,20,03,09,12.40
2011,08,20,03,10,12.40
2011,08,20,03,11,12.40
2011,08,20,03,12,12.40
2011,08,20,03,13,12.40
2011,08,20,03,14,12.40
2011,08,20,03,15,12.40
2011,08,20,03,16,12.40
2011,08,20,03,17,12.40
2011,08,20,03,18,12.40
2011,08,20,03,19,12.40
2011,08,20,03,20,12.40
2011,08,20,03,21,12.40
2011,08,20,03,22,12.40
2011,08,20,03,23,12.40
2011,08,20,03,24,12.30
2011,08,20,03,25,12.30
2011,08,20,03,26,12.30
2011,08,20,03,27,12.30
2011,08,20,03,28,12.30
2011,08,20,03,29,12.30
2011,08,20,03,30,12.30
2011,08,20,03,31,12.30
2011,08,20,03,32,12.30
2011,08,20,03,33,12.30
2011,08,20,03,34,12.30
2011,08,20,03,35,12.40
2011,08,20,03,36,12.40
2011,08,20,03,37,12.40
2011,08,20,03,38,12.40
2011,08,20,03,39,12.40
2011,08,20,03,40,12.40
2011,08,20,03,41,12.40
2011,08,20,03,42,12.40
2011,08,20,03,43,12.40
2011,08,20,03,44,12.40
2011,08,20,03,45,12.40
2011,08,20,03,46,12.40
2011,08,20,03,47,12.40
2011,08,20,03,48,12.40
2011,08,20,03,49,12.40
2011,08,20,03,50,12.40
2011,08,20,03,51,12.40
2011,08,20,03,52,12.40
2011,08,20,03,53,12.40
2011,08,20,03,54,12.40
2011,08,20,03,55,12.40
2011,08,20,03,56,12.50
2011,08,20,03,57,12.50
2011,08,20,03,58,12.50
2011,08,20,03,59,12.50
2011,08,20,04,00,12.50
2011,08,20,04,01,12.50
2011,08,20,04,02,12.50
2011,08,20,04,03,12.60
2011,08,20,04,04,12.60
2011,08,20,04,05,12.60
2011,08,20,04,06,12.60
2011,08,20,04,07,12.70
2011,08,20,04,08,12.70
2011,08,20,04,09,12.70
2011,08,20,04,10,12.70
2011,08,20,04,11,12.80
2011,08,20,04,12,12.80
2011,08,20,04,13,12.80
2011,08,20,04,14,12.80
2011,08,20,04,15,12.80
2011,08,20,04,16,12.80
2011,08,20,04,17,12.80
2011,08,20,04,18,12.80
2011,08,20,04,19,12.80
2011,08,20,04,20,12.80
2011,08,20,04,21,12.80
2011,08,20,04,22,12.80
2011,08,20,04,23,12.80
2011,08,20,04,24,12.80
2011,08,20,04,25,12.80
2011,08,20,04,26,12.80
2011,08,20,04,27,12.80
2011,08,20,04,28,12.80
2011,08,20,04,29,12.80
2011,08,20,04,30,12.80
2011,08,20,04,31,12.80
2011,08,20,04,32,12.80
2011,08,20,04,33,12.80
2011,08,20,04,34,12.80
2011,08,20,04,35,12.80
2011,08,20,04,36,12.80
2011,08,20,04,37,12.70
2011,08,20,04,38,12.70
2011,08,20,04,39,12.70
2011,08,20,04,40,12.70
2011,08,20,04,41,12.70
2011,08,20,04,42,12.70
2011,08,20,04,43,12.70
2011,08,20,04,44,12.70
2011,08,20,04,45,12.70
2011,08,20,04,46,12.70
2011,08,20,04,47,12.70
2011,08,20,04,48,12.70
2011,08,20,04,49,12.70
2011,08,20,04,50,12.70
2011,08,20,04,51,12.70
2011,08,20,04,52,12.70
2011,08,20,04,53,12.70
2011,08,20,04,54,12.80
2011,08,20,04,55,12.80
2011,08,20,04,56,12.80
2011,08,20,04,57,12.90
2011,08,20,04,58,13.00
2011,08,20,04,59,13.00
2011,08,20,05,00,13.10
2011,08,20,05,01,13.20
2011,08,20,05,02,13.30
2011,08,20,05,03,13.40
2011,08,20,05,04,13.50
2011,08,20,05,05,13.50
2011,08,20,05,06,13.60
2011,08,20,05,07,13.70
2011,08,20,05,08,13.70
2011,08,20,05,09,13.80
2011,08,20,05,10,13.90
2011,08,20,05,11,13.90
2011,08,20,05,12,14.00
2011,08,20,05,13,14.00
2011,08,20,05,14,14.10
2011,08,20,05,15,14.10
2011,08,20,05,16,14.20
2011,08,20,05,17,14.20
2011,08,20,05,18,14.20
2011,08,20,05,19,14.30
2011,08,20,05,20,14.40
2011,08,20,05,21,14.40
2011,08,20,05,22,14.50
2011,08,20,05,23,14.50
2011,08,20,05,24,14.60
2011,08,20,05,25,14.60
2011,08,20,05,26,14.60
2011,08,20,05,27,14.70
2011,08,20,05,28,14.70
2011,08,20,05,29,14.80
2011,08,20,05,30,14.80
2011,08,20,05,31,14.80
2011,08,20,05,32,14.90
2011,08,20,05,33,14.90
2011,08,20,05,34,14.90
2011,08,20,05,35,15.00
2011,08,20,05,36,15.00
2011,08,20,05,37,15.00
2011,08,20,05,38,15.00
2011,08,20,05,39,15.00
2011,08,20,05,40,15.00
2011,08,20,05,41,15.00
2011,08,20,05,42,15.00
2011,08,20,05,43,15.00
2011,08,20,05,44,15.00
2011,08,20,05,45,15.00
2011,08,20,05,46,15.00
2011,08,20,05,47,15.00
2011,08,20,05,48,15.00
2011,08,20,05,49,15.00
2011,08,20,05,50,15.10
2011,08,20,05,51,15.10
2011,08,20,05,52,15.10
2011,08,20,05,53,15.10
2011,08,20,05,54,15.10
2011,08,20,05,55,15.10
2011,08,20,05,56,15.10
2011,08,20,05,57,15.10
2011,08,20,05,58,15.10
2011,08,20,05,59,15.10
2011,08,20,06,00,15.10
2011,08,20,06,01,15.10
2011,08,20,06,02,15.10
2011,08,20,06,03,15.10
2011,08,20,06,04,15.10
2011,08,20,06,05,15.10
2011,08,20,06,06,15.00
2011,08,20,06,07,15.00
2011,08,20,06,08,15.00
2011,08,20,06,09,15.00
2011,08,20,06,10,15.00
2011,08,20,06,11,15.00
2011,08,20,06,12,15.00
2011,08,20,06,13,15.00
2011,08,20,06,14,15.00
2011,08,20,06,15,15.00
2011,08,20,06,16,15.00
2011,08,20,06,17,15.00
2011,08,20,06,18,14.90
2011,08,20,06,19,14.90
2011,08,20,06,20,14.90
2011,08,20,06,21,14.90
2011,08,20,06,22,14.90
2011,08,20,06,23,14.90
2011,08,20,06,24,14.90
2011,08,20,06,25,14.90
2011,08,20,06,26,14.90
2011,08,20,06,27,14.90
2011,08,20,06,28,14.90
2011,08,20,06,29,14.90
2011,08,20,06,30,14.90
2011,08,20,06,31,14.80
2011,08,20,06,32,14.90
2011,08,20,06,33,14.80
2011,08,20,06,34,14.80
2011,08,20,06,35,14.80
2011,08,20,06,36,14.80
2011,08,20,06,37,14.80
2011,08,20,06,38,14.80
2011,08,20,06,39,14.80
2011,08,20,06,40,14.80
2011,08,20,06,41,14.80
2011,08,20,06,42,14.80
2011,08,20,06,43,14.80
2011,08,20,06,44,14.80
2011,08,20,06,45,14.80
2011,08,20,06,46,14.80
2011,08,20,06,47,14.70
2011,08,20,06,48,14.70
2011,08,20,06,49,14.70
2011,08,20,06,50,14.70
2011,08,20,06,51,14.70
2011,08,20,06,52,14.70
2011,08,20,06,53,14.70
2011,08,20,06,54,14.70
2011,08,20,06,55,14.80
2011,08,20,06,56,14.80
2011,08,20,06,57,14.80
2011,08,20,06,58,14.80
2011,08,20,06,59,14.80
2011,08,20,07,00,14.80
2011,08,20,07,01,14.80
2011,08,20,07,02,14.80
2011,08,20,07,03,14.80
2011,08,20,07,04,14.80
2011,08,20,07,05,14.80
2011,08,20,07,06,14.80
2011,08,20,07,07,14.80
2011,08,20,07,08,14.80
2011,08,20,07,09,14.80
2011,08,20,07,10,14.80
2011,08,20,07,11,14.80
2011,08,20,07,12,14.80
2011,08,20,07,13,14.80
2011,08,20,07,14,14.80
2011,08,20,07,15,14.80
2011,08,20,07,16,14.80
2011,08,20,07,17,14.80
2011,08,20,07,18,14.80
2011,08,20,07,19,14.80
2011,08,20,07,20,14.80
2011,08,20,07,21,14.80
2011,08,20,07,22,14.80
2011,08,20,07,23,14.80
2011,08,20,07,24,14.80
2011,08,20,07,25,14.80
2011,08,20,07,26,14.80
2011,08,20,07,27,14.80
2011,08,20,07,28,14.80
2011,08,20,07,29,14.80
2011,08,20,07,30,14.80
2011,08,20,07,31,14.80
2011,08,20,07,32,14.90
2011,08,20,07,33,14.90
2011,08,20,07,34,14.90
2011,08,20,07,35,14.90
2011,08,20,07,36,14.90
2011,08,20,07,37,15.00
2011,08,20,07,38,15.00
2011,08,20,07,39,15.00
2011,08,20,07,40,15.00
2011,08,20,07,41,15.10
2011,08,20,07,42,15.10
2011,08,20,07,43,15.10
2011,08,20,07,44,15.10
2011,08,20,07,45,15.20
2011,08,20,07,46,15.20
2011,08,20,07,47,15.20
2011,08,20,07,48,15.20
2011,08,20,07,49,15.30
2011,08,20,07,50,15.30
2011,08,20,07,51,15.30
2011,08,20,07,52,15.30
2011,08,20,07,53,15.30
2011,08,20,07,54,15.30
2011,08,20,07,55,15.30
2011,08,20,07,56,15.30
2011,08,20,07,57,15.30
2011,08,20,07,58,15.30
2011,08,20,07,59,15.30
2011,08,20,08,00,15.40
2011,08,20,08,01,15.40
2011,08,20,08,02,15.40
2011,08,20,08,03,15.50
2011,08,20,08,04,15.50
2011,08,20,08,05,15.50
2011,08,20,08,06,15.50
2011,08,20,08,07,15.60
2011,08,20,08,08,15.60
2011,08,20,08,09,15.70
2011,08,20,08,10,15.70
2011,08,20,08,11,15.70
2011,08,20,08,12,15.80
2011,08,20,08,13,15.80
2011,08,20,08,14,15.80
2011,08,20,08,15,15.80
2011,08,20,08,16,15.80
2011,08,20,08,17,15.90
2011,08,20,08,18,15.90
2011,08,20,08,19,15.90
2011,08,20,08,20,16.00
2011,08,20,08,21,16.10
2011,08,20,08,22,16.10
2011,08,20,08,23,16.10
2011,08,20,08,24,16.10
2011,08,20,08,25,16.20
2011,08,20,08,26,16.30
2011,08,20,08,27,16.30
2011,08,20,08,28,16.40
2011,08,20,08,29,16.50
2011,08,20,08,30,16.60
2011,08,20,08,31,16.70
2011,08,20,08,32,16.80
2011,08,20,08,33,16.90
2011,08,20,08,34,17.00
2011,08,20,08,35,17.00
2011,08,20,08,36,17.10
2011,08,20,08,37,17.20
2011,08,20,08,38,17.20
2011,08,20,08,39,17.30
2011,08,20,08,40,17.30
2011,08,20,08,41,17.40
2011,08,20,08,42,17.50
2011,08,20,08,43,17.50
2011,08,20,08,44,17.60
2011,08,20,08,45,17.70
2011,08,20,08,46,17.80
2011,08,20,08,47,18.00
2011,08,20,08,48,18.10
2011,08,20,08,49,18.20
2011,08,20,08,50,18.30
2011,08,20,08,51,18.40
2011,08,20,08,52,18.50
2011,08,20,08,53,18.60
2011,08,20,08,54,18.70
2011,08,20,08,55,18.80
2011,08,20,08,56,18.90
2011,08,20,08,57,19.00
2011,08,20,08,58,19.10
2011,08,20,08,59,19.20
2011,08,20,09,00,19.30
2011,08,20,09,01,19.40
2011,08,20,09,02,19.50
2011,08,20,09,03,19.60
2011,08,20,09,04,19.70
2011,08,20,09,05,19.70
2011,08,20,09,06,19.80
2011,08,20,09,07,19.90
2011,08,20,09,08,19.90
2011,08,20,09,09,19.90
2011,08,20,09,10,19.90
2011,08,20,09,11,20.00
2011,08,20,09,12,20.10
2011,08,20,09,13,20.10
2011,08,20,09,14,20.10
2011,08,20,09,15,20.20
2011,08,20,09,16,20.20
2011,08,20,09,17,20.20
2011,08,20,09,18,20.20
2011,08,20,09,19,20.20
2011,08,20,09,20,20.20
2011,08,20,09,21,20.30
2011,08,20,09,22,20.30
2011,08,20,09,23,20.30
2011,08,20,09,24,20.40
2011,08,20,09,25,20.40
2011,08,20,09,26,20.50
2011,08,20,09,27,20.50
2011,08,20,09,28,20.60
2011,08,20,09,29,20.70
2011,08,20,09,30,20.70
2011,08,20,09,31,20.80
2011,08,20,09,32,20.80
2011,08,20,09,33,20.90
2011,08,20,09,34,20.90
2011,08,20,09,35,20.90
2011,08,20,09,36,21.00
2011,08,20,09,37,21.00
2011,08,20,09,38,21.10
2011,08,20,09,39,21.10
2011,08,20,09,40,21.20
2011,08,20,09,41,21.20
2011,08,20,09,42,21.20
2011,08,20,09,43,21.20
2011,08,20,09,44,21.20
2011,08,20,09,45,21.20
2011,08,20,09,46,21.30
2011,08,20,09,47,21.20
2011,08,20,09,48,21.20
2011,08,20,09,49,21.20
2011,08,20,09,50,21.20
2011,08,20,09,51,21.20
2011,08,20,09,52,21.30
2011,08,20,09,53,21.30
2011,08,20,09,54,21.40
2011,08,20,09,55,21.50
2011,08,20,09,56,21.60
2011,08,20,09,57,21.60
2011,08,20,09,58,21.60
2011,08,20,09,59,21.70
2011,08,20,10,00,21.80
2011,08,20,10,01,21.90
2011,08,20,10,02,22.00
2011,08,20,10,03,22.00
2011,08,20,10,04,22.10
2011,08,20,10,05,22.10
2011,08,20,10,06,22.20
2011,08,20,10,07,22.30
2011,08,20,10,08,22.30
2011,08,20,10,09,22.40
2011,08,20,10,10,22.40
2011,08,20,10,11,22.40
2011,08,20,10,12,22.40
2011,08,20,10,13,22.40
2011,08,20,10,14,22.40
2011,08,20,10,15,22.30
2011,08,20,10,16,22.20
2011,08,20,10,17,22.10
2011,08,20,10,18,22.20
2011,08,20,10,19,22.20
2011,08,20,10,20,22.30
2011,08,20,10,21,22.30
2011,08,20,10,22,22.30
2011,08,20,10,23,22.40
2011,08,20,10,24,22.40
2011,08,20,10,25,22.40
2011,08,20,10,26,22.40
2011,08,20,10,27,22.30
2011,08,20,10,28,22.30
2011,08,20,10,29,22.20
2011,08,20,10,30,22.20
2011,08,20,10,31,22.20
2011,08,20,10,32,22.30
2011,08,20,10,33,22.30
2011,08,20,10,34,22.30
2011,08,20,10,35,22.40
2011,08,20,10,36,22.40
2011,08,20,10,37,22.50
2011,08,20,10,38,22.50
2011,08,20,10,39,22.40
2011,08,20,10,40,22.40
2011,08,20,10,41,22.40
2011,08,20,10,42,22.50
2011,08,20,10,43,22.60
2011,08,20,10,44,22.60
2011,08,20,10,45,22.70
2011,08,20,10,46,22.70
2011,08,20,10,47,22.80
2011,08,20,10,48,22.70
2011,08,20,10,49,22.70
2011,08,20,10,50,22.60
2011,08,20,10,51,22.60
2011,08,20,10,52,22.60
2011,08,20,10,53,22.60
2011,08,20,10,54,22.70
2011,08,20,10,55,22.70
2011,08,20,10,56,22.70
2011,08,20,10,57,22.80
2011,08,20,10,58,22.90
2011,08,20,10,59,23.00
2011,08,20,11,00,23.10
2011,08,20,11,01,23.30
2011,08,20,11,02,23.30
2011,08,20,11,03,23.30
2011,08,20,11,04,23.30
2011,08,20,11,05,23.30
2011,08,20,11,06,23.30
2011,08,20,11,07,23.30
2011,08,20,11,08,23.30
2011,08,20,11,09,23.30
2011,08,20,11,10,23.30
2011,08,20,11,11,23.30
2011,08,20,11,12,23.30
2011,08,20,11,13,23.30
2011,08,20,11,14,23.30
2011,08,20,11,15,23.20
2011,08,20,11,16,23.20
2011,08,20,11,17,23.10
2011,08,20,11,18,23.10
2011,08,20,11,19,23.10
2011,08,20,11,20,23.10
2011,08,20,11,21,23.20
2011,08,20,11,22,23.30
2011,08,20,11,23,23.30
2011,08,20,11,24,23.30
2011,08,20,11,25,23.40
2011,08,20,11,26,23.40
2011,08,20,11,27,23.40
2011,08,20,11,28,23.40
2011,08,20,11,29,23.60
2011,08,20,11,30,23.60
2011,08,20,11,31,23.70
2011,08,20,11,32,23.70
2011,08,20,11,33,23.80
2011,08,20,11,34,23.90
2011,08,20,11,35,24.00
2011,08,20,11,36,24.10
2011,08,20,11,37,24.10
2011,08,20,11,38,24.10
2011,08,20,11,39,24.10
2011,08,20,11,40,24.10
2011,08,20,11,41,24.10
2011,08,20,11,42,24.10
2011,08,20,11,43,24.10
2011,08,20,11,44,24.20
2011,08,20,11,45,24.20
2011,08,20,11,46,24.30
2011,08,20,11,47,24.30
2011,08,20,11,48,24.40
2011,08,20,11,49,24.30
2011,08,20,11,50,24.40
2011,08,20,11,51,24.50
2011,08,20,11,52,24.60
2011,08,20,11,53,24.60
2011,08,20,11,54,24.60
2011,08,20,11,55,24.60
2011,08,20,11,56,24.60
2011,08,20,11,57,24.60
2011,08,20,11,58,24.60
2011,08,20,11,59,24.60
2011,08,20,12,00,24.60
2011,08,20,12,01,24.70
2011,08,20,12,02,24.70
2011,08,20,12,03,24.70
2011,08,20,12,04,24.70
2011,08,20,12,05,24.70
2011,08,20,12,06,24.70
2011,08,20,12,07,24.70
2011,08,20,12,08,24.70
2011,08,20,12,09,24.70
2011,08,20,12,10,24.70
2011,08,20,12,11,24.80
2011,08,20,12,12,24.80
2011,08,20,12,13,24.80
2011,08,20,12,14,24.80
2011,08,20,12,15,24.80
2011,08,20,12,16,24.70
2011,08,20,12,17,24.70
2011,08,20,12,18,24.70
2011,08,20,12,19,24.60
2011,08,20,12,20,24.60
2011,08,20,12,21,24.70
2011,08,20,12,22,24.80
2011,08,20,12,23,24.80
2011,08,20,12,24,24.80
2011,08,20,12,25,24.90
2011,08,20,12,26,24.90
2011,08,20,12,27,25.00
2011,08,20,12,28,25.10
2011,08,20,12,29,25.10
2011,08,20,12,30,25.20
2011,08,20,12,31,25.20
2011,08,20,12,32,25.30
2011,08,20,12,33,25.30
2011,08,20,12,34,25.30
2011,08,20,12,35,25.40
2011,08,20,12,36,25.40
2011,08,20,12,37,25.40
2011,08,20,12,38,25.50
2011,08,20,12,39,25.50
2011,08,20,12,40,25.60
2011,08,20,12,41,25.60
2011,08,20,12,42,25.70
2011,08,20,12,43,25.70
2011,08,20,12,44,25.70
2011,08,20,12,45,25.80
2011,08,20,12,46,25.70
2011,08,20,12,47,25.70
2011,08,20,12,48,25.70
2011,08,20,12,49,25.70
2011,08,20,12,50,25.60
2011,08,20,12,51,25.70
2011,08,20,12,52,25.80
2011,08,20,12,53,25.90
2011,08,20,12,54,25.90
2011,08,20,12,55,26.00
2011,08,20,12,56,26.00
2011,08,20,12,57,26.00
2011,08,20,12,58,26.00
2011,08,20,12,59,25.90
2011,08,20,13,00,25.90
2011,08,20,13,01,25.90
2011,08,20,13,02,25.90
2011,08,20,13,03,25.80
2011,08,20,13,04,25.90
2011,08,20,13,05,25.90
2011,08,20,13,06,25.90
2011,08,20,13,07,25.90
2011,08,20,13,08,25.90
2011,08,20,13,09,26.00
2011,08,20,13,10,26.10
2011,08,20,13,11,26.30
2011,08,20,13,12,26.30
2011,08,20,13,13,26.30
2011,08,20,13,14,26.40
2011,08,20,13,15,26.50
2011,08,20,13,16,26.50
2011,08,20,13,17,26.40
2011,08,20,13,18,26.20
2011,08,20,13,19,26.10
2011,08,20,13,20,26.10
2011,08,20,13,21,26.20
2011,08,20,13,22,26.20
2011,08,20,13,23,26.30
2011,08,20,13,24,26.30
2011,08,20,13,25,26.40
2011,08,20,13,26,26.50
2011,08,20,13,27,26.60
2011,08,20,13,28,26.70
2011,08,20,13,29,26.80
2011,08,20,13,30,26.90
2011,08,20,13,31,26.90
2011,08,20,13,32,26.90
2011,08,20,13,33,27.00
2011,08,20,13,34,27.10
2011,08,20,13,35,27.10
2011,08,20,13,36,27.10
2011,08,20,13,37,27.20
2011,08,20,13,38,27.20
2011,08,20,13,39,27.30
2011,08,20,13,40,27.30
2011,08,20,13,41,27.40
2011,08,20,13,42,27.40
2011,08,20,13,43,27.40
2011,08,20,13,44,27.50
2011,08,20,13,45,27.60
2011,08,20,13,46,27.70
2011,08,20,13,47,27.70
2011,08,20,13,48,27.80
2011,08,20,13,49,27.80
2011,08,20,13,50,27.80
2011,08,20,13,51,27.90
2011,08,20,13,52,27.90
2011,08,20,13,53,27.90
2011,08,20,13,54,27.90
2011,08,20,13,55,27.90
2011,08,20,13,56,27.90
2011,08,20,13,57,28.00
2011,08,20,13,58,28.10
2011,08,20,13,59,28.30
2011,08,20,14,00,28.40
2011,08,20,14,01,28.50
2011,08,20,14,02,28.60
2011,08,20,14,03,28.60
2011,08,20,14,04,28.70
2011,08,20,14,05,28.80
2011,08,20,14,06,28.80
2011,08,20,14,07,28.80
2011,08,20,14,08,28.80
2011,08,20,14,09,28.80
2011,08,20,14,10,28.80
2011,08,20,14,11,28.80
2011,08,20,14,12,28.80
2011,08,20,14,13,28.70
2011,08,20,14,14,28.80
2011,08,20,14,15,28.80
2011,08,20,14,16,28.70
2011,08,20,14,17,28.70
2011,08,20,14,18,28.80
2011,08,20,14,19,28.80
2011,08,20,14,20,28.80
2011,08,20,14,21,28.80
2011,08,20,14,22,28.80
2011,08,20,14,23,28.80
2011,08,20,14,24,28.80
2011,08,20,14,25,28.80
2011,08,20,14,26,28.80
2011,08,20,14,27,28.80
2011,08,20,14,28,28.80
2011,08,20,14,29,28.90
2011,08,20,14,30,28.90
2011,08,20,14,31,28.90
2011,08,20,14,32,28.90
2011,08,20,14,33,28.90
2011,08,20,14,34,28.90
2011,08,20,14,35,28.90
2011,08,20,14,36,28.90
2011,08,20,14,37,28.90
2011,08,20,14,38,28.90
2011,08,20,14,39,28.90
2011,08,20,14,40,28.90
2011,08,20,14,41,28.90
2011,08,20,14,42,28.90
2011,08,20,14,43,28.90
2011,08,20,14,44,28.90
2011,08,20,14,45,28.90
2011,08,20,14,46,28.90
2011,08,20,14,47,28.90
2011,08,20,14,48,28.90
2011,08,20,14,49,28.90
2011,08,20,14,50,28.90
2011,08,20,14,51,28.90
2011,08,20,14,52,28.90
2011,08,20,14,53,28.90
2011,08,20,14,54,28.90
2011,08,20,14,55,28.90
2011,08,20,14,56,28.90
2011,08,20,14,57,28.90
2011,08,20,14,58,28.90
2011,08,20,14,59,28.90
2011,08,20,15,00,28.90
2011,08,20,15,01,28.90
2011,08,20,15,02,28.90
2011,08,20,15,03,28.90
2011,08,20,15,04,28.90
2011,08,20,15,05,28.90
2011,08,20,15,06,28.90
2011,08,20,15,07,28.90
2011,08,20,15,08,28.90
2011,08,20,15,09,28.90
2011,08,20,15,10,28.90
2011,08,20,15,11,28.90
2011,08,20,15,12,28.90
2011,08,20,15,13,28.90
2011,08,20,15,14,28.90
2011,08,20,15,15,28.90
2011,08,20,15,16,28.90
2011,08,20,15,17,28.90
2011,08,20,15,18,28.90
2011,08,20,15,19,28.90
2011,08,20,15,20,28.90
2011,08,20,15,21,28.90
2011,08,20,15,22,28.90
2011,08,20,15,23,28.90
2011,08,20,15,24,28.90
2011,08,20,15,25,28.90
2011,08,20,15,26,29.00
2011,08,20,15,27,29.10
2011,08,20,15,28,29.10
2011,08,20,15,29,29.10
2011,08,20,15,30,29.10
2011,08,20,15,31,29.10
2011,08,20,15,32,29.20
2011,08,20,15,33,29.20
2011,08,20,15,34,29.20
2011,08,20,15,35,29.30
2011,08,20,15,36,29.30
2011,08,20,15,37,29.40
2011,08,20,15,38,29.40
2011,08,20,15,39,29.50
2011,08,20,15,40,29.50
2011,08,20,15,41,29.50
2011,08,20,15,42,29.50
2011,08,20,15,43,29.50
2011,08,20,15,44,29.50
2011,08,20,15,45,29.50
2011,08,20,15,46,29.50
2011,08,20,15,47,29.40
2011,08,20,15,48,29.40
2011,08,20,15,49,29.40
2011,08,20,15,50,29.30
2011,08,20,15,51,29.30
2011,08,20,15,52,29.30
2011,08,20,15,53,29.30
2011,08,20,15,54,29.30
2011,08,20,15,55,29.30
2011,08,20,15,56,29.20
2011,08,20,15,57,29.20
2011,08,20,15,58,29.20
2011,08,20,15,59,29.10
2011,08,20,16,00,29.00
2011,08,20,16,01,28.90
2011,08,20,16,02,28.90
2011,08,20,16,03,28.90
2011,08,20,16,04,28.90
2011,08,20,16,05,28.90
2011,08,20,16,06,28.80
2011,08,20,16,07,28.80
2011,08,20,16,08,28.70
2011,08,20,16,09,28.70
2011,08,20,16,10,28.60
2011,08,20,16,11,28.50
2011,08,20,16,12,28.40
2011,08,20,16,13,28.30
2011,08,20,16,14,28.20
2011,08,20,16,15,28.10
2011,08,20,16,16,28.00
2011,08,20,16,17,27.90
2011,08,20,16,18,27.80
2011,08,20,16,19,27.70
2011,08,20,16,20,27.70
2011,08,20,16,21,27.60
2011,08,20,16,22,27.50
2011,08,20,16,23,27.40
2011,08,20,16,24,27.30
2011,08,20,16,25,27.30
2011,08,20,16,26,27.30
2011,08,20,16,27,27.20
2011,08,20,16,28,27.10
2011,08,20,16,29,27.10
2011,08,20,16,30,27.00
2011,08,20,16,31,26.90
2011,08,20,16,32,26.90
2011,08,20,16,33,26.90
2011,08,20,16,34,26.80
2011,08,20,16,35,26.80
2011,08,20,16,36,26.80
2011,08,20,16,37,26.80
2011,08,20,16,38,26.70
2011,08,20,16,39,26.70
2011,08,20,16,40,26.60
2011,08,20,16,41,26.60
2011,08,20,16,42,26.60
2011,08,20,16,43,26.60
2011,08,20,16,44,26.60
2011,08,20,16,45,26.60
2011,08,20,16,46,26.60
2011,08,20,16,47,26.60
2011,08,20,16,48,26.60
2011,08,20,16,49,26.60
2011,08,20,16,50,26.60
2011,08,20,16,51,26.60
2011,08,20,16,52,26.60
2011,08,20,16,53,26.60
2011,08,20,16,54,26.60
2011,08,20,16,55,26.60
2011,08,20,16,56,26.60
2011,08,20,16,57,26.60
2011,08,20,16,58,26.50
2011,08,20,16,59,26.40
2011,08,20,17,00,26.40
2011,08,20,17,01,26.40
2011,08,20,17,02,26.40
2011,08,20,17,03,26.30
2011,08,20,17,04,26.30
2011,08,20,17,05,26.30
2011,08,20,17,06,26.20
2011,08,20,17,07,26.20
2011,08,20,17,08,26.20
2011,08,20,17,09,26.10
2011,08,20,17,10,26.10
2011,08,20,17,11,26.00
2011,08,20,17,12,26.00
2011,08,20,17,13,26.00
2011,08,20,17,14,25.90
2011,08,20,17,15,25.90
2011,08,20,17,16,25.90
2011,08,20,17,17,25.80
2011,08,20,17,18,25.80
2011,08,20,17,19,25.80